{"data":{"norad_id":47517,"intl_designator":"2021-006DH","name":"ASTROCAST-0105","alt_names":[],"object_type":"PAYLOAD","status":"ACTIVE","operator":null,"country":"SWTZ","launch_date":"2021-01-24","launch_site_code":"AFETR","launch_vehicle":null,"mission":null,"orbit_class":"UNKNOWN","rcs_meters":null,"size_class":null,"mass_kg":null,"dimensions":null,"purposes":[],"wikipedia_slug":null,"has_3d_model":false,"image_url":null,"decayed_at":null,"tle_current":{"epoch":"2026-06-11T03:00:59.578848Z","epoch_age_seconds":8840543,"freshness":"OLD","line1":"1 47517U 21006DH  26162.12568957  .04852793  23375-5  17653-2 0  9990","line2":"2 47517  97.1920 226.7503 0014644 260.2904  99.6733 16.24489675300003","mean_motion":16.24489675,"eccentricity":0.0014644,"inclination_deg":97.192,"raan_deg":226.7503,"arg_perigee_deg":260.2904,"mean_anomaly_deg":99.6733,"bstar":0.0017653,"rev_number":30000,"period_min":88.643222678531,"perigee_km":197.74620087423,"apogee_km":217.03389248855,"semimajor_km":6585.5270466814,"source":"CELESTRAK","updated_at":"2026-06-12T09:00:26.382267Z"}}}